Time,TemperatureF,DewpointF,PressureIn,WindDirection,WindDirectionDegrees,WindSpeedMPH,WindSpeedGustMPH,Humidity,HourlyPrecipIn,Conditions,Clouds,dailyrainin,SoftwareType,DateUTC
2013-04-16 00:04:00,47.8,42.6,29.59,SSE,157,0.0,0.0,82,0.00,,,0.00,VWS V14.01,2013-04-15 23:04:00,
2013-04-16 00:10:00,47.8,42.6,29.59,SSE,157,0.0,1.6,82,0.00,,,0.00,VWS V14.01,2013-04-15 23:10:00,
2013-04-16 00:15:00,47.8,42.6,29.59,SSE,157,0.0,0.0,82,0.00,,,0.00,VWS V14.01,2013-04-15 23:15:00,
2013-04-16 00:21:00,47.5,42.3,29.58,SSE,157,0.0,0.0,82,0.00,,,0.00,VWS V14.01,2013-04-15 23:21:00,
2013-04-16 00:26:00,47.5,42.3,29.58,South,180,0.0,0.0,82,0.00,,,0.00,VWS V14.01,2013-04-15 23:26:00,
2013-04-16 00:31:00,47.3,42.1,29.59,SSE,157,0.0,0.0,82,0.00,,,0.00,VWS V14.01,2013-04-15 23:31:00,
2013-04-16 00:36:00,47.3,42.1,29.59,South,180,0.0,0.0,82,0.00,,,0.00,VWS V14.01,2013-04-15 23:36:00,
2013-04-16 00:42:00,47.3,42.4,29.58,SSW,202,0.0,5.8,83,0.00,,,0.00,VWS V14.01,2013-04-15 23:42:00,
2013-04-16 00:48:00,47.5,42.6,29.58,South,180,0.0,8.3,83,0.00,,,0.00,VWS V14.01,2013-04-15 23:48:00,
2013-04-16 00:54:00,47.5,42.6,29.58,South,180,0.0,2.7,83,0.00,,,0.00,VWS V14.01,2013-04-15 23:54:00,
2013-04-16 01:00:00,47.7,42.8,29.58,South,180,2.7,2.7,83,0.00,,,0.00,VWS V14.01,2013-04-16 00:00:00,
2013-04-16 01:06:00,47.7,42.8,29.58,South,180,0.0,7.4,83,0.00,,,0.00,VWS V14.01,2013-04-16 00:06:00,
2013-04-16 01:12:00,47.8,42.9,29.58,South,180,0.0,9.6,83,0.00,,,0.00,VWS V14.01,2013-04-16 00:12:00,
2013-04-16 01:18:00,48.0,43.1,29.58,SSW,202,5.1,5.1,83,0.00,,,0.00,VWS V14.01,2013-04-16 00:18:00,
2013-04-16 01:24:00,48.0,43.1,29.57,SSW,202,0.0,3.6,83,0.00,,,0.00,VWS V14.01,2013-04-16 00:24:00,
2013-04-16 01:30:00,48.0,42.8,29.57,SSW,202,0.0,7.4,82,0.00,,,0.00,VWS V14.01,2013-04-16 00:30:00,
2013-04-16 01:36:00,48.0,43.1,29.57,SW,225,0.0,6.5,83,0.00,,,0.00,VWS V14.01,2013-04-16 00:36:00,
2013-04-16 01:41:00,48.0,43.1,29.57,South,180,0.0,5.6,83,0.00,,,0.00,VWS V14.01,2013-04-16 00:41:00,
2013-04-16 01:47:00,48.2,43.3,29.57,South,180,2.2,2.7,83,0.00,,,0.00,VWS V14.01,2013-04-16 00:47:00,
2013-04-16 01:53:00,48.4,43.5,29.57,South,180,0.0,8.9,83,0.00,,,0.00,VWS V14.01,2013-04-16 00:53:00,
2013-04-16 01:58:00,48.4,43.2,29.57,South,180,0.0,0.0,82,0.00,,,0.00,VWS V14.01,2013-04-16 00:58:00,
2013-04-16 02:04:00,48.4,43.2,29.57,South,180,7.2,7.2,82,0.00,,,0.00,VWS V14.01,2013-04-16 01:04:00,
2013-04-16 02:09:00,48.4,43.2,29.57,SSW,202,0.0,5.4,82,0.00,,,0.00,VWS V14.01,2013-04-16 01:09:00,
2013-04-16 02:14:00,48.4,43.2,29.57,South,180,8.5,8.5,82,0.00,,,0.00,VWS V14.01,2013-04-16 01:14:00,
2013-04-16 02:20:00,48.4,43.2,29.56,SSW,202,0.0,7.2,82,0.00,,,0.00,VWS V14.01,2013-04-16 01:20:00,
2013-04-16 02:26:00,48.4,43.2,29.55,South,180,0.0,9.4,82,0.00,,,0.00,VWS V14.01,2013-04-16 01:26:00,
2013-04-16 02:31:00,48.6,43.0,29.55,South,180,0.0,3.1,81,0.00,,,0.00,VWS V14.01,2013-04-16 01:31:00,
2013-04-16 02:36:00,48.7,43.1,29.55,South,180,5.8,5.8,81,0.00,,,0.00,VWS V14.01,2013-04-16 01:36:00,
2013-04-16 02:42:00,48.9,43.3,29.54,SW,225,6.9,7.6,81,0.00,,,0.00,VWS V14.01,2013-04-16 01:42:00,
2013-04-16 02:48:00,49.1,43.2,29.54,SSW,202,0.0,5.4,80,0.00,,,0.00,VWS V14.01,2013-04-16 01:48:00,
2013-04-16 02:53:00,49.1,43.2,29.54,South,180,10.5,10.5,80,0.00,,,0.00,VWS V14.01,2013-04-16 01:53:00,
2013-04-16 02:59:00,49.3,43.4,29.54,South,180,0.0,1.3,80,0.00,,,0.00,VWS V14.01,2013-04-16 01:59:00,
2013-04-16 03:05:00,49.3,43.4,29.54,SW,225,0.0,5.8,80,0.00,,,0.00,VWS V14.01,2013-04-16 02:05:00,
2013-04-16 03:10:00,49.6,43.4,29.54,SSW,202,10.3,10.3,79,0.00,,,0.00,VWS V14.01,2013-04-16 02:10:00,
2013-04-16 03:16:00,49.6,43.4,29.53,SSE,157,0.0,4.7,79,0.00,,,0.00,VWS V14.01,2013-04-16 02:16:00,
2013-04-16 03:22:00,49.6,43.7,29.53,South,180,0.0,12.1,80,0.00,,,0.00,VWS V14.01,2013-04-16 02:22:00,
2013-04-16 03:28:00,49.6,43.7,29.53,SSW,202,3.6,6.9,80,0.00,,,0.00,VWS V14.01,2013-04-16 02:28:00,
2013-04-16 03:33:00,49.6,43.4,29.54,SSW,202,5.4,5.4,79,0.00,,,0.00,VWS V14.01,2013-04-16 02:33:00,
2013-04-16 03:39:00,49.6,43.4,29.54,SSW,202,3.1,3.1,79,0.00,,,0.00,VWS V14.01,2013-04-16 02:39:00,
2013-04-16 03:44:00,49.6,43.7,29.53,SSW,202,13.9,13.9,80,0.00,,,0.00,VWS V14.01,2013-04-16 02:44:00,
2013-04-16 03:50:00,49.3,43.4,29.53,SSE,157,0.0,7.4,80,0.00,,,0.00,VWS V14.01,2013-04-16 02:50:00,
2013-04-16 03:55:00,49.3,43.4,29.54,SSW,202,6.5,6.5,80,0.00,,,0.00,VWS V14.01,2013-04-16 02:55:00,
2013-04-16 04:05:00,49.3,43.4,29.53,NE,45,0.0,9.6,80,0.00,,,0.00,VWS V14.01,2013-04-16 03:05:00,
2013-04-16 04:11:00,49.3,43.4,29.52,SSW,202,6.9,7.8,80,0.00,,,0.00,VWS V14.01,2013-04-16 03:11:00,
2013-04-16 04:17:00,49.6,43.7,29.52,South,180,0.0,8.5,80,0.00,,,0.00,VWS V14.01,2013-04-16 03:17:00,
2013-04-16 04:22:00,49.8,43.9,29.52,SSW,202,4.7,10.1,80,0.00,,,0.00,VWS V14.01,2013-04-16 03:22:00,
2013-04-16 04:28:00,50.0,44.1,29.53,SSW,202,0.0,6.3,80,0.00,,,0.00,VWS V14.01,2013-04-16 03:28:00,
2013-04-16 04:34:00,50.2,44.0,29.52,SSW,202,0.0,8.7,79,0.00,,,0.00,VWS V14.01,2013-04-16 03:34:00,
2013-04-16 04:39:00,50.2,44.0,29.52,SSE,157,5.1,6.5,79,0.00,,,0.00,VWS V14.01,2013-04-16 03:39:00,
2013-04-16 04:45:00,50.4,44.1,29.52,South,180,0.0,7.4,79,0.00,,,0.00,VWS V14.01,2013-04-16 03:45:00,
2013-04-16 04:51:00,50.5,44.2,29.52,SW,225,0.0,3.6,79,0.00,,,0.00,VWS V14.01,2013-04-16 03:51:00,
2013-04-16 04:56:00,50.5,44.2,29.52,SW,225,8.1,8.1,79,0.00,,,0.00,VWS V14.01,2013-04-16 03:56:00,
2013-04-16 05:00:00,50.5,44.2,29.52,South,180,3.4,11.6,79,0.00,,,0.00,VWS V14.01,2013-04-16 04:00:00,
2013-04-16 05:01:00,50.5,44.2,29.52,SSW,202,9.4,9.4,79,0.00,,,0.00,VWS V14.01,2013-04-16 04:01:00,
2013-04-16 05:03:00,50.5,44.2,29.52,South,180,7.4,7.4,79,0.00,,,0.00,VWS V14.01,2013-04-16 04:03:00,
2013-04-16 05:04:00,50.7,44.4,29.52,South,180,5.6,9.8,79,0.00,,,0.00,VWS V14.01,2013-04-16 04:04:00,
2013-04-16 05:09:00,50.5,44.6,29.52,SW,225,8.1,8.1,80,0.00,,,0.00,VWS V14.01,2013-04-16 04:09:00,
2013-04-16 05:14:00,50.5,44.9,29.51,South,180,0.0,5.4,81,0.00,,,0.00,VWS V14.01,2013-04-16 04:14:00,
2013-04-16 05:16:00,50.5,45.2,29.51,SSW,202,5.8,6.9,82,0.00,,,0.00,VWS V14.01,2013-04-16 04:16:00,
2013-04-16 05:22:00,50.5,45.2,29.52,SW,225,3.8,8.5,82,0.00,,,0.00,VWS V14.01,2013-04-16 04:22:00,
2013-04-16 05:27:00,50.5,45.2,29.52,South,180,1.1,5.4,82,0.00,,,0.00,VWS V14.01,2013-04-16 04:27:00,
2013-04-16 05:33:00,50.4,45.4,29.52,SW,225,8.7,8.7,83,0.00,,,0.00,VWS V14.01,2013-04-16 04:33:00,
2013-04-16 05:39:00,50.4,45.4,29.52,SW,225,11.9,11.9,83,0.00,,,0.00,VWS V14.01,2013-04-16 04:39:00,
2013-04-16 05:45:00,50.2,45.2,29.52,SW,225,10.1,10.1,83,0.00,,,0.00,VWS V14.01,2013-04-16 04:45:00,
2013-04-16 05:51:00,50.2,45.6,29.52,SW,225,17.7,17.7,84,0.00,,,0.00,VWS V14.01,2013-04-16 04:51:00,
2013-04-16 05:56:00,49.8,45.5,29.52,SW,225,7.6,7.6,85,0.00,,,0.00,VWS V14.01,2013-04-16 04:56:00,
2013-04-16 06:01:00,49.8,45.5,29.52,SSW,202,4.0,13.6,85,0.00,,,0.00,VWS V14.01,2013-04-16 05:01:00,
2013-04-16 06:06:00,49.8,45.5,29.52,SSW,202,9.2,9.2,85,0.00,,,0.00,VWS V14.01,2013-04-16 05:06:00,
2013-04-16 06:12:00,49.8,45.5,29.53,SSE,157,0.0,15.9,85,0.00,,,0.00,VWS V14.01,2013-04-16 05:12:00,
2013-04-16 06:18:00,49.8,45.5,29.53,NNW,337,2.5,6.9,85,0.00,,,0.00,VWS V14.01,2013-04-16 05:18:00,
2013-04-16 06:24:00,49.8,45.8,29.52,SW,225,4.0,6.7,86,0.00,,,0.00,VWS V14.01,2013-04-16 05:24:00,
2013-04-16 06:29:00,50.2,46.2,29.52,SW,225,10.7,11.6,86,0.00,,,0.00,VWS V14.01,2013-04-16 05:29:00,
2013-04-16 06:34:00,50.2,46.2,29.52,SW,225,4.0,9.2,86,0.00,,,0.00,VWS V14.01,2013-04-16 05:34:00,
2013-04-16 06:40:00,50.2,46.2,29.52,SSW,202,5.1,8.5,86,0.00,,,0.00,VWS V14.01,2013-04-16 05:40:00,
2013-04-16 06:46:00,50.2,46.2,29.52,NNE,22,0.0,4.9,86,0.00,,,0.00,VWS V14.01,2013-04-16 05:46:00,
2013-04-16 06:51:00,50.2,46.2,29.52,SSW,202,0.0,14.5,86,0.00,,,0.00,VWS V14.01,2013-04-16 05:51:00,
2013-04-16 06:57:00,49.8,46.4,29.52,NNW,337,0.0,6.9,88,0.00,,,0.00,VWS V14.01,2013-04-16 05:57:00,
2013-04-16 07:03:00,49.6,46.2,29.52,SW,225,7.6,9.4,88,0.00,,,0.00,VWS V14.01,2013-04-16 06:03:00,
2013-04-16 07:08:00,49.6,46.5,29.53,SW,225,6.5,6.5,89,0.00,,,0.00,VWS V14.01,2013-04-16 06:08:00,
2013-04-16 07:13:00,49.5,46.4,29.53,SSW,202,1.3,5.8,89,0.00,,,0.00,VWS V14.01,2013-04-16 06:13:00,
2013-04-16 07:19:00,49.5,46.7,29.52,South,180,3.1,4.3,90,0.00,,,0.00,VWS V14.01,2013-04-16 06:19:00,
2013-04-16 07:24:00,49.6,46.8,29.52,South,180,11.9,11.9,90,0.00,,,0.00,VWS V14.01,2013-04-16 06:24:00,
2013-04-16 07:29:00,49.8,46.7,29.52,SW,225,4.3,6.5,89,0.00,,,0.00,VWS V14.01,2013-04-16 06:29:00,
2013-04-16 07:35:00,50.2,46.8,29.53,SSW,202,0.0,5.4,88,0.00,,,0.00,VWS V14.01,2013-04-16 06:35:00,
2013-04-16 07:40:00,50.2,46.8,29.53,SW,225,2.2,6.3,88,0.00,,,0.00,VWS V14.01,2013-04-16 06:40:00,
2013-04-16 07:46:00,50.4,47.0,29.54,South,180,6.7,7.4,88,0.00,,,0.00,VWS V14.01,2013-04-16 06:46:00,
2013-04-16 07:51:00,50.5,47.1,29.53,SW,225,3.1,5.8,88,0.00,,,0.00,VWS V14.01,2013-04-16 06:51:00,
2013-04-16 07:57:00,50.9,47.2,29.54,South,180,0.0,8.7,87,0.00,,,0.00,VWS V14.01,2013-04-16 06:57:00,
2013-04-16 08:02:00,51.4,47.4,29.53,SW,225,6.3,8.7,86,0.00,,,0.00,VWS V14.01,2013-04-16 07:02:00,
2013-04-16 08:08:00,51.4,47.0,29.53,SSW,202,11.6,14.8,85,0.00,,,0.00,VWS V14.01,2013-04-16 07:08:00,
2013-04-16 08:14:00,51.6,47.2,29.53,NE,45,2.5,6.5,85,0.00,,,0.00,VWS V14.01,2013-04-16 07:14:00,
2013-04-16 08:20:00,52.0,47.3,29.54,South,180,6.3,7.4,84,0.00,,,0.00,VWS V14.01,2013-04-16 07:20:00,
2013-04-16 08:26:00,52.3,47.3,29.54,SSW,202,3.1,3.1,83,0.00,,,0.00,VWS V14.01,2013-04-16 07:26:00,
2013-04-16 08:31:00,52.9,47.6,29.55,SW,225,8.7,8.7,82,0.00,,,0.00,VWS V14.01,2013-04-16 07:31:00,
2013-04-16 08:37:00,53.2,47.2,29.55,SW,225,0.0,10.7,80,0.00,,,0.00,VWS V14.01,2013-04-16 07:37:00,
2013-04-16 08:42:00,54.5,47.8,29.54,South,180,0.0,9.4,78,0.00,,,0.00,VWS V14.01,2013-04-16 07:42:00,
2013-04-16 08:47:00,55.6,48.2,29.54,SW,225,0.0,6.9,76,0.00,,,0.00,VWS V14.01,2013-04-16 07:47:00,
2013-04-16 08:53:00,57.4,48.8,29.54,SSW,202,6.9,6.9,73,0.00,,,0.00,VWS V14.01,2013-04-16 07:53:00,
2013-04-16 08:58:00,57.9,48.2,29.54,SSW,202,6.5,13.6,70,0.00,,,0.00,VWS V14.01,2013-04-16 07:58:00,
2013-04-16 09:03:00,57.6,47.5,29.54,SW,225,15.0,15.0,69,0.00,,,0.00,VWS V14.01,2013-04-16 08:03:00,
2013-04-16 09:09:00,56.8,47.1,29.54,SSW,202,0.0,10.1,70,0.00,,,0.00,VWS V14.01,2013-04-16 08:09:00,
2013-04-16 09:15:00,56.1,47.2,29.55,SW,225,14.1,14.1,72,0.00,,,0.00,VWS V14.01,2013-04-16 08:15:00,
2013-04-16 09:21:00,56.8,47.5,29.54,South,180,11.0,11.0,71,0.00,,,0.00,VWS V14.01,2013-04-16 08:21:00,
2013-04-16 09:26:00,57.0,47.3,29.54,SW,225,0.0,13.9,70,0.00,,,0.00,VWS V14.01,2013-04-16 08:26:00,
2013-04-16 09:32:00,57.0,46.9,29.55,SW,225,7.2,9.4,69,0.00,,,0.00,VWS V14.01,2013-04-16 08:32:00,
2013-04-16 09:38:00,56.7,47.0,29.55,SW,225,5.6,7.8,70,0.00,,,0.00,VWS V14.01,2013-04-16 08:38:00,
2013-04-16 09:44:00,56.8,46.8,29.55,South,180,8.7,10.3,69,0.00,,,0.00,VWS V14.01,2013-04-16 08:44:00,
2013-04-16 09:49:00,57.7,47.2,29.55,NNW,337,0.0,11.9,68,0.00,,,0.00,VWS V14.01,2013-04-16 08:49:00,
2013-04-16 09:55:00,58.5,47.2,29.55,SW,225,6.5,13.0,66,0.00,,,0.00,VWS V14.01,2013-04-16 08:55:00,
2013-04-16 10:00:00,58.8,47.5,29.56,South,180,5.4,6.0,66,0.00,,,0.00,VWS V14.01,2013-04-16 09:00:00,
2013-04-16 10:06:00,58.8,46.7,29.55,SW,225,5.1,10.1,64,0.00,,,0.00,VWS V14.01,2013-04-16 09:06:00,
2013-04-16 10:12:00,59.7,47.1,29.56,SW,225,0.0,7.8,63,0.00,,,0.00,VWS V14.01,2013-04-16 09:12:00,
2013-04-16 10:18:00,59.4,46.4,29.55,SSW,202,7.2,9.6,62,0.00,,,0.00,VWS V14.01,2013-04-16 09:18:00,
2013-04-16 10:24:00,59.2,46.2,29.55,SSW,202,9.2,20.1,62,0.00,,,0.00,VWS V14.01,2013-04-16 09:24:00,
2013-04-16 10:29:00,59.2,46.2,29.57,SW,225,8.5,8.5,62,0.00,,,0.00,VWS V14.01,2013-04-16 09:29:00,
2013-04-16 10:35:00,59.5,46.5,29.56,SW,225,8.7,8.7,62,0.00,,,0.00,VWS V14.01,2013-04-16 09:35:00,
2013-04-16 10:41:00,60.1,46.2,29.57,NNW,337,0.0,9.8,60,0.00,,,0.00,VWS V14.01,2013-04-16 09:41:00,
2013-04-16 10:47:00,60.4,46.5,29.56,SW,225,0.0,9.4,60,0.00,,,0.00,VWS V14.01,2013-04-16 09:47:00,
2013-04-16 10:52:00,60.6,46.7,29.57,SSW,202,1.6,4.7,60,0.00,,,0.00,VWS V14.01,2013-04-16 09:52:00,
2013-04-16 10:58:00,60.1,45.3,29.57,NNW,337,0.0,16.3,58,0.00,,,0.00,VWS V14.01,2013-04-16 09:58:00,
2013-04-16 11:03:00,60.1,45.7,29.57,NNW,337,6.0,17.0,59,0.00,,,0.00,VWS V14.01,2013-04-16 10:03:00,
2013-04-16 11:09:00,60.1,45.7,29.57,SSW,202,0.0,9.4,59,0.00,,,0.00,VWS V14.01,2013-04-16 10:09:00,
2013-04-16 11:14:00,61.0,46.1,29.57,SSW,202,1.6,6.3,58,0.00,,,0.00,VWS V14.01,2013-04-16 10:14:00,
2013-04-16 11:20:00,62.1,46.7,29.57,SSW,202,8.1,10.5,57,0.00,,,0.00,VWS V14.01,2013-04-16 10:20:00,
2013-04-16 11:26:00,62.8,46.4,29.57,SW,225,0.0,2.9,55,0.00,,,0.00,VWS V14.01,2013-04-16 10:26:00,
2013-04-16 11:31:00,61.9,45.6,29.57,NNE,22,0.0,11.2,55,0.00,,,0.00,VWS V14.01,2013-04-16 10:31:00,
2013-04-16 11:37:00,60.4,45.6,29.57,SW,225,7.8,8.1,58,0.00,,,0.00,VWS V14.01,2013-04-16 10:37:00,
2013-04-16 11:43:00,59.9,45.5,29.57,North,0,5.6,7.8,59,0.00,,,0.00,VWS V14.01,2013-04-16 10:43:00,
2013-04-16 11:49:00,60.4,44.7,29.57,SSW,202,6.7,10.5,56,0.00,,,0.00,VWS V14.01,2013-04-16 10:49:00,
2013-04-16 11:55:00,60.4,44.7,29.57,NNW,337,5.4,10.1,56,0.00,,,0.00,VWS V14.01,2013-04-16 10:55:00,
2013-04-16 12:00:00,59.9,44.7,29.58,NNW,337,3.8,11.4,57,0.00,,,0.00,VWS V14.01,2013-04-16 11:00:00,
2013-04-16 12:06:00,59.9,45.1,29.58,SW,225,4.7,9.2,58,0.00,,,0.00,VWS V14.01,2013-04-16 11:06:00,
2013-04-16 12:12:00,60.4,45.1,29.58,SSW,202,7.2,10.5,57,0.00,,,0.00,VWS V14.01,2013-04-16 11:12:00,
2013-04-16 12:18:00,61.0,45.2,29.58,NNE,22,0.0,2.7,56,0.00,,,0.00,VWS V14.01,2013-04-16 11:18:00,
2013-04-16 12:24:00,60.6,44.8,29.58,NNW,337,5.1,9.8,56,0.00,,,0.00,VWS V14.01,2013-04-16 11:24:00,
2013-04-16 12:30:00,59.9,44.7,29.58,SW,225,10.5,10.5,57,0.00,,,0.00,VWS V14.01,2013-04-16 11:30:00,
2013-04-16 12:35:00,60.1,44.4,29.58,SW,225,0.0,11.6,56,0.00,,,0.00,VWS V14.01,2013-04-16 11:35:00,
2013-04-16 12:41:00,60.6,44.8,29.58,SSW,202,5.1,5.1,56,0.00,,,0.00,VWS V14.01,2013-04-16 11:41:00,
2013-04-16 12:46:00,61.0,44.2,29.58,NNE,22,0.0,6.0,54,0.00,,,0.00,VWS V14.01,2013-04-16 11:46:00,
2013-04-16 12:51:00,61.2,44.4,29.58,SSW,202,11.4,11.4,54,0.00,,,0.00,VWS V14.01,2013-04-16 11:51:00,
2013-04-16 12:57:00,60.8,43.6,29.58,SW,225,1.6,5.1,53,0.00,,,0.00,VWS V14.01,2013-04-16 11:57:00,
2013-04-16 13:03:00,60.6,44.4,29.58,SW,225,0.0,7.6,55,0.00,,,0.00,VWS V14.01,2013-04-16 12:03:00,
2013-04-16 13:08:00,61.3,44.5,29.58,SW,225,0.0,4.7,54,0.00,,,0.00,VWS V14.01,2013-04-16 12:08:00,
2013-04-16 13:13:00,61.2,43.5,29.58,North,0,0.0,0.0,52,0.00,,,0.00,VWS V14.01,2013-04-16 12:13:00,
2013-04-16 13:19:00,61.7,44.4,29.59,SSW,202,0.0,0.0,53,0.00,,,0.00,VWS V14.01,2013-04-16 12:19:00,
2013-04-16 13:25:00,61.9,43.6,29.59,SSW,202,0.0,0.0,51,0.00,,,0.00,VWS V14.01,2013-04-16 12:25:00,
2013-04-16 13:30:00,61.9,43.1,29.59,SW,225,0.0,0.0,50,0.00,,,0.00,VWS V14.01,2013-04-16 12:30:00,
2013-04-16 13:35:00,62.4,44.0,29.58,SW,225,0.0,0.0,51,0.00,,,0.00,VWS V14.01,2013-04-16 12:35:00,
2013-04-16 13:41:00,62.2,41.7,29.59,SSW,202,0.0,0.0,47,0.00,,,0.00,VWS V14.01,2013-04-16 12:41:00,
2013-04-16 13:47:00,62.4,44.0,29.59,SW,225,16.3,16.3,51,0.00,,,0.00,VWS V14.01,2013-04-16 12:47:00,
2013-04-16 13:53:00,62.2,43.9,29.59,South,180,12.1,12.1,51,0.00,,,0.00,VWS V14.01,2013-04-16 12:53:00,
2013-04-16 13:59:00,62.1,43.3,29.59,North,0,0.0,0.0,50,0.00,,,0.00,VWS V14.01,2013-04-16 12:59:00,
2013-04-16 14:04:00,62.6,43.7,29.59,South,180,3.1,12.5,50,0.00,,,0.00,VWS V14.01,2013-04-16 13:04:00,
2013-04-16 14:10:00,63.7,43.7,29.59,SW,225,6.5,14.3,48,0.00,,,0.00,VWS V14.01,2013-04-16 13:10:00,
2013-04-16 14:15:00,64.2,43.6,29.59,SW,225,4.3,6.9,47,0.00,,,0.00,VWS V14.01,2013-04-16 13:15:00,
2013-04-16 14:21:00,64.2,43.6,29.59,SW,225,8.9,8.9,47,0.00,,,0.00,VWS V14.01,2013-04-16 13:21:00,
2013-04-16 14:27:00,64.9,44.2,29.59,SW,225,0.0,12.3,47,0.00,,,0.00,VWS V14.01,2013-04-16 13:27:00,
2013-04-16 14:33:00,66.0,43.5,29.59,NNW,337,10.5,17.0,44,0.00,,,0.00,VWS V14.01,2013-04-16 13:33:00,
2013-04-16 14:38:00,65.3,43.4,29.59,South,180,8.9,8.9,45,0.00,,,0.00,VWS V14.01,2013-04-16 13:38:00,
2013-04-16 14:44:00,65.3,43.4,29.59,SW,225,11.6,11.6,45,0.00,,,0.00,VWS V14.01,2013-04-16 13:44:00,
2013-04-16 14:50:00,65.1,43.3,29.59,SSW,202,2.7,11.4,45,0.00,,,0.00,VWS V14.01,2013-04-16 13:50:00,
2013-04-16 14:56:00,66.9,44.9,29.59,SW,225,8.7,8.7,45,0.00,,,0.00,VWS V14.01,2013-04-16 13:56:00,
2013-04-16 15:02:00,68.2,44.3,29.59,SW,225,4.3,17.2,42,0.00,,,0.00,VWS V14.01,2013-04-16 14:02:00,
2013-04-16 15:07:00,68.7,44.1,29.59,SW,225,0.0,6.5,41,0.00,,,0.00,VWS V14.01,2013-04-16 14:07:00,
2013-04-16 15:12:00,67.5,41.7,29.59,SSE,157,6.7,8.9,39,0.00,,,0.00,VWS V14.01,2013-04-16 14:12:00,
2013-04-16 15:18:00,68.4,41.8,29.59,SW,225,4.7,16.3,38,0.00,,,0.00,VWS V14.01,2013-04-16 14:18:00,
2013-04-16 15:24:00,70.0,42.6,29.59,SW,225,0.0,3.8,37,0.00,,,0.00,VWS V14.01,2013-04-16 14:24:00,
2013-04-16 15:29:00,71.1,43.5,29.59,SW,225,0.0,12.3,37,0.00,,,0.00,VWS V14.01,2013-04-16 14:29:00,
2013-04-16 15:35:00,70.7,43.2,29.59,NE,45,0.0,7.4,37,0.00,,,0.00,VWS V14.01,2013-04-16 14:35:00,
2013-04-16 15:41:00,68.4,42.5,29.59,SW,225,0.0,5.6,39,0.00,,,0.00,VWS V14.01,2013-04-16 14:41:00,
2013-04-16 15:47:00,67.3,42.8,29.59,SSW,202,4.3,8.5,41,0.00,,,0.00,VWS V14.01,2013-04-16 14:47:00,
2013-04-16 15:53:00,68.7,41.4,29.59,SSW,202,4.5,10.7,37,0.00,,,0.00,VWS V14.01,2013-04-16 14:53:00,
2013-04-16 15:58:00,70.2,42.0,29.59,SSW,202,13.4,13.4,36,0.00,,,0.00,VWS V14.01,2013-04-16 14:58:00,
2013-04-16 16:04:00,71.2,42.2,29.59,SW,225,0.4,8.1,35,0.00,,,0.00,VWS V14.01,2013-04-16 15:04:00,
2013-04-16 16:09:00,71.2,42.2,29.59,South,180,2.7,12.1,35,0.00,,,0.00,VWS V14.01,2013-04-16 15:09:00,
2013-04-16 16:15:00,68.7,42.1,29.60,SW,225,0.0,6.9,38,0.00,,,0.00,VWS V14.01,2013-04-16 15:15:00,
2013-04-16 16:21:00,70.7,42.5,29.60,SW,225,8.3,8.3,36,0.00,,,0.00,VWS V14.01,2013-04-16 15:21:00,
2013-04-16 16:27:00,71.4,42.3,29.60,NNW,337,1.8,3.6,35,0.00,,,0.00,VWS V14.01,2013-04-16 15:27:00,
2013-04-16 16:32:00,71.1,42.1,29.60,SSW,202,2.7,3.6,35,0.00,,,0.00,VWS V14.01,2013-04-16 15:32:00,
2013-04-16 16:38:00,70.5,41.6,29.59,SSE,157,5.4,9.8,35,0.00,,,0.00,VWS V14.01,2013-04-16 15:38:00,
2013-04-16 16:44:00,68.7,41.4,29.60,NW,315,5.4,5.4,37,0.00,,,0.00,VWS V14.01,2013-04-16 15:44:00,
2013-04-16 16:49:00,66.0,41.0,29.60,SSW,202,6.3,6.3,40,0.00,,,0.00,VWS V14.01,2013-04-16 15:49:00,
2013-04-16 16:55:00,66.0,42.3,29.61,SSW,202,4.9,5.1,42,0.00,,,0.00,VWS V14.01,2013-04-16 15:55:00,
2013-04-16 17:01:00,65.8,41.5,29.60,SSW,202,9.4,10.1,41,0.00,,,0.00,VWS V14.01,2013-04-16 16:01:00,
2013-04-16 17:07:00,66.6,41.5,29.60,North,0,3.6,13.4,40,0.00,,,0.00,VWS V14.01,2013-04-16 16:07:00,
2013-04-16 17:12:00,67.6,42.4,29.60,NNW,337,0.0,6.7,40,0.00,,,0.00,VWS V14.01,2013-04-16 16:12:00,
2013-04-16 17:17:00,67.8,42.6,29.60,South,180,2.2,9.6,40,0.00,,,0.00,VWS V14.01,2013-04-16 16:17:00,
2013-04-16 17:23:00,66.7,42.9,29.61,NE,45,2.0,7.6,42,0.00,,,0.00,VWS V14.01,2013-04-16 16:23:00,
2013-04-16 17:29:00,64.2,41.8,29.62,North,0,14.5,14.5,44,0.00,,,0.00,VWS V14.01,2013-04-16 16:29:00,
2013-04-16 17:35:00,62.4,41.4,29.62,SW,225,14.8,14.8,46,0.00,,,0.00,VWS V14.01,2013-04-16 16:35:00,
2013-04-16 17:40:00,61.7,41.8,29.62,North,0,0.0,11.0,48,0.00,,,0.00,VWS V14.01,2013-04-16 16:40:00,
2013-04-16 17:46:00,62.2,42.3,29.62,SW,225,12.1,12.1,48,0.00,,,0.00,VWS V14.01,2013-04-16 16:46:00,
2013-04-16 17:52:00,64.2,43.6,29.61,SW,225,0.0,4.3,47,0.00,,,0.00,VWS V14.01,2013-04-16 16:52:00,
2013-04-16 17:58:00,65.3,44.0,29.62,SSW,202,0.0,7.2,46,0.00,,,0.00,VWS V14.01,2013-04-16 16:58:00,
2013-04-16 18:03:00,64.6,43.9,29.62,SSW,202,7.8,7.8,47,0.00,,,0.00,VWS V14.01,2013-04-16 17:03:00,
2013-04-16 18:09:00,64.2,43.6,29.62,SSW,202,6.0,7.2,47,0.00,,,0.00,VWS V14.01,2013-04-16 17:09:00,
2013-04-16 18:15:00,65.1,44.4,29.62,NNE,22,0.0,7.4,47,0.00,,,0.00,VWS V14.01,2013-04-16 17:15:00,
2013-04-16 18:20:00,66.0,44.7,29.62,SSW,202,0.0,4.0,46,0.00,,,0.00,VWS V14.01,2013-04-16 17:20:00,
2013-04-16 18:25:00,64.9,43.7,29.62,SSW,202,4.9,8.7,46,0.00,,,0.00,VWS V14.01,2013-04-16 17:25:00,
2013-04-16 18:31:00,64.6,43.4,29.62,SW,225,8.5,13.0,46,0.00,,,0.00,VWS V14.01,2013-04-16 17:31:00,
2013-04-16 18:37:00,64.0,43.4,29.62,SSE,157,0.0,11.0,47,0.00,,,0.00,VWS V14.01,2013-04-16 17:37:00,
2013-04-16 18:42:00,63.3,42.8,29.62,South,180,4.3,11.4,47,0.00,,,0.00,VWS V14.01,2013-04-16 17:42:00,
2013-04-16 18:48:00,62.4,42.5,29.62,SSW,202,4.7,9.6,48,0.00,,,0.00,VWS V14.01,2013-04-16 17:48:00,
2013-04-16 18:53:00,61.3,42.5,29.62,SSW,202,4.7,17.9,50,0.00,,,0.00,VWS V14.01,2013-04-16 17:53:00,
2013-04-16 18:59:00,60.6,42.4,29.62,SW,225,7.8,14.3,51,0.00,,,0.00,VWS V14.01,2013-04-16 17:59:00,
2013-04-16 19:05:00,60.4,42.7,29.63,NNW,337,0.0,6.0,52,0.00,,,0.00,VWS V14.01,2013-04-16 18:05:00,
2013-04-16 19:10:00,59.4,42.8,29.63,South,180,1.1,15.2,54,0.00,,,0.00,VWS V14.01,2013-04-16 18:10:00,
2013-04-16 19:16:00,58.8,42.7,29.63,SSW,202,3.8,6.0,55,0.00,,,0.00,VWS V14.01,2013-04-16 18:16:00,
2013-04-16 19:22:00,57.9,42.8,29.63,SW,225,4.7,9.6,57,0.00,,,0.00,VWS V14.01,2013-04-16 18:22:00,
2013-04-16 19:27:00,57.4,42.8,29.64,SW,225,0.0,6.0,58,0.00,,,0.00,VWS V14.01,2013-04-16 18:27:00,
2013-04-16 19:32:00,57.0,42.8,29.64,SW,225,0.0,6.7,59,0.00,,,0.00,VWS V14.01,2013-04-16 18:32:00,
2013-04-16 19:38:00,56.3,42.6,29.64,North,0,0.0,4.9,60,0.00,,,0.00,VWS V14.01,2013-04-16 18:38:00,
2013-04-16 19:44:00,55.6,42.4,29.64,SSW,202,0.0,4.0,61,0.00,,,0.00,VWS V14.01,2013-04-16 18:44:00,
2013-04-16 19:50:00,55.0,42.7,29.65,SW,225,4.7,4.7,63,0.00,,,0.00,VWS V14.01,2013-04-16 18:50:00,
2013-04-16 19:55:00,54.7,42.8,29.65,SSW,202,0.0,0.0,64,0.00,,,0.00,VWS V14.01,2013-04-16 18:55:00,
2013-04-16 20:01:00,54.1,42.2,29.65,SW,225,0.0,4.7,64,0.00,,,0.00,VWS V14.01,2013-04-16 19:01:00,
2013-04-16 20:07:00,53.8,42.3,29.65,SSW,202,0.0,7.2,65,0.00,,,0.00,VWS V14.01,2013-04-16 19:07:00,
2013-04-16 20:13:00,53.4,42.7,29.65,SSW,202,0.0,3.1,67,0.00,,,0.00,VWS V14.01,2013-04-16 19:13:00,
2013-04-16 20:19:00,53.1,42.5,29.66,NNW,337,0.0,5.6,67,0.00,,,0.00,VWS V14.01,2013-04-16 19:19:00,
2013-04-16 20:25:00,52.9,42.3,29.66,South,180,0.0,0.0,67,0.00,,,0.00,VWS V14.01,2013-04-16 19:25:00,
2013-04-16 20:31:00,52.5,42.3,29.66,South,180,6.0,6.0,68,0.00,,,0.00,VWS V14.01,2013-04-16 19:31:00,
2013-04-16 20:37:00,52.3,42.5,29.66,SSW,202,0.0,0.0,69,0.00,,,0.00,VWS V14.01,2013-04-16 19:37:00,
2013-04-16 20:43:00,52.0,42.2,29.66,NNW,337,0.0,2.2,69,0.00,,,0.00,VWS V14.01,2013-04-16 19:43:00,
2013-04-16 20:49:00,51.8,42.0,29.66,South,180,7.2,7.2,69,0.00,,,0.00,VWS V14.01,2013-04-16 19:49:00,
2013-04-16 20:55:00,51.6,42.2,29.67,SW,225,0.0,0.0,70,0.00,,,0.00,VWS V14.01,2013-04-16 19:55:00,
2013-04-16 21:00:00,51.4,41.6,29.67,SSW,202,0.0,0.0,69,0.00,,,0.00,VWS V14.01,2013-04-16 20:00:00,
2013-04-16 21:06:00,51.3,41.9,29.67,SW,225,0.0,0.0,70,0.00,,,0.00,VWS V14.01,2013-04-16 20:06:00,
2013-04-16 21:11:00,51.1,42.0,29.67,SW,225,1.6,10.7,71,0.00,,,0.00,VWS V14.01,2013-04-16 20:11:00,
2013-04-16 21:17:00,51.1,42.0,29.67,SW,225,0.0,5.1,71,0.00,,,0.00,VWS V14.01,2013-04-16 20:17:00,
2013-04-16 21:23:00,50.9,41.8,29.67,SSW,202,0.0,0.0,71,0.00,,,0.00,VWS V14.01,2013-04-16 20:23:00,
2013-04-16 21:29:00,50.7,42.0,29.68,SSW,202,6.5,6.5,72,0.00,,,0.00,VWS V14.01,2013-04-16 20:29:00,
2013-04-16 21:35:00,50.7,42.0,29.67,SSE,157,0.0,0.0,72,0.00,,,0.00,VWS V14.01,2013-04-16 20:35:00,
2013-04-16 21:41:00,50.5,42.2,29.67,SW,225,6.0,10.7,73,0.00,,,0.00,VWS V14.01,2013-04-16 20:41:00,
2013-04-16 21:47:00,50.4,42.1,29.67,SW,225,0.0,7.8,73,0.00,,,0.00,VWS V14.01,2013-04-16 20:47:00,
2013-04-16 21:52:00,50.2,42.2,29.68,SW,225,0.0,0.0,74,0.00,,,0.00,VWS V14.01,2013-04-16 20:52:00,
2013-04-16 21:57:00,50.2,42.2,29.68,SSW,202,0.0,0.0,74,0.00,,,0.00,VWS V14.01,2013-04-16 20:57:00,
2013-04-16 22:03:00,49.8,41.9,29.68,SSW,202,0.0,4.9,74,0.00,,,0.00,VWS V14.01,2013-04-16 21:03:00,
2013-04-16 22:09:00,49.8,42.2,29.69,SSW,202,0.0,0.0,75,0.00,,,0.00,VWS V14.01,2013-04-16 21:09:00,
2013-04-16 22:15:00,49.8,42.2,29.68,South,180,0.0,0.0,75,0.00,,,0.00,VWS V14.01,2013-04-16 21:15:00,
2013-04-16 22:21:00,49.8,42.5,29.68,SW,225,0.0,0.0,76,0.00,,,0.00,VWS V14.01,2013-04-16 21:21:00,
2013-04-16 22:27:00,50.2,43.3,29.68,SSW,202,0.0,0.0,77,0.00,,,0.00,VWS V14.01,2013-04-16 21:27:00,
2013-04-16 22:33:00,50.4,43.5,29.69,South,180,0.0,5.6,77,0.00,,,0.00,VWS V14.01,2013-04-16 21:33:00,
2013-04-16 22:39:00,50.5,43.6,29.69,SW,225,0.0,0.0,77,0.00,,,0.00,VWS V14.01,2013-04-16 21:39:00,
2013-04-16 22:44:00,50.7,43.8,29.70,SW,225,0.0,0.0,77,0.00,,,0.00,VWS V14.01,2013-04-16 21:44:00,
2013-04-16 22:50:00,50.7,43.8,29.70,SW,225,0.0,2.2,77,0.00,,,0.00,VWS V14.01,2013-04-16 21:50:00,
2013-04-16 22:55:00,50.7,43.8,29.70,SW,225,1.6,3.1,77,0.00,,,0.00,VWS V14.01,2013-04-16 21:55:00,
2013-04-16 23:00:00,50.9,44.0,29.70,SSW,202,0.0,0.0,77,0.00,,,0.00,VWS V14.01,2013-04-16 22:00:00,
2013-04-16 23:06:00,50.9,44.0,29.70,SW,225,0.0,0.0,77,0.00,,,0.00,VWS V14.01,2013-04-16 22:06:00,
2013-04-16 23:12:00,50.9,44.0,29.70,South,180,0.0,0.0,77,0.00,,,0.00,VWS V14.01,2013-04-16 22:12:00,
2013-04-16 23:17:00,50.9,44.0,29.70,South,180,0.0,6.3,77,0.00,,,0.00,VWS V14.01,2013-04-16 22:17:00,
2013-04-16 23:23:00,50.9,44.0,29.69,SSE,157,4.9,4.9,77,0.00,,,0.00,VWS V14.01,2013-04-16 22:23:00,
2013-04-16 23:28:00,50.9,44.3,29.70,SSW,202,5.6,5.6,78,0.00,,,0.00,VWS V14.01,2013-04-16 22:28:00,
2013-04-16 23:34:00,50.7,44.1,29.70,SW,225,4.3,4.3,78,0.00,,,0.00,VWS V14.01,2013-04-16 22:34:00,
2013-04-16 23:39:00,50.5,43.9,29.70,SSW,202,0.0,0.0,78,0.00,,,0.00,VWS V14.01,2013-04-16 22:39:00,
2013-04-16 23:45:00,50.4,44.1,29.70,SSE,157,0.0,0.0,79,0.00,,,0.00,VWS V14.01,2013-04-16 22:45:00,
2013-04-16 23:50:00,50.2,44.0,29.70,SSW,202,0.7,0.7,79,0.00,,,0.00,VWS V14.01,2013-04-16 22:50:00,
2013-04-16 23:56:00,49.8,43.9,29.69,South,180,4.7,8.3,80,0.00,,,0.00,VWS V14.01,2013-04-16 22:56:00,